EXS8UB EGNT-LGZA

Flight info

Callsign EXS8UB
Flight time N/A
Altitude 35000
Route NATEB DCT ERLOT DCT ACAGE DCT TOPPA DCT OTMEC DCT DODEN/N0437F370 DCT NEGIX DCT DINKU M867 XERUM DCT BAVAX DCT RADIZ DCT EVAXI DCT DARZA DCT RUGOG DCT RASTU DCT DEPET DCT UNIPA DCT VAKSU DCT RODON DCT LIMJA DCT PITAS/N0419F330 UN732 KRK UT321 ASTUS
Aircraft B738/M-SDE2E3FGHIRWXY/LB1

Departure

Time N/A
Airport Newcastle International Airport (EGNT)

Arrival

Time 2026-05-04 12:00
Airport Zakynthos International Airport Dionysios Solomos (LGZA)
Time Latitude Longitude Altitude Speed Heading
2026-05-04 10:16 46.02697 14.40093 37100 ft 452 kts 143°
2026-05-04 10:16 46.00211 14.42960 37106 ft 452 kts 143°
2026-05-04 10:17 45.95327 14.48582 37102 ft 452 kts 143°
2026-05-04 10:19 45.75752 14.70977 37103 ft 453 kts 143°
2026-05-04 10:19 45.70933 14.76461 37101 ft 453 kts 143°
2026-05-04 10:20 45.66104 14.81941 37110 ft 454 kts 143°
2026-05-04 10:20 45.61192 14.87505 37101 ft 454 kts 143°
2026-05-04 10:21 45.56240 14.93101 37100 ft 455 kts 143°
2026-05-04 10:21 45.51355 14.98611 37109 ft 455 kts 142°
2026-05-04 10:22 45.44711 15.07239 37108 ft 458 kts 135°
2026-05-04 10:23 45.40278 15.13682 37107 ft 459 kts 135°
2026-05-04 10:25 45.22535 15.38229 37103 ft 462 kts 139°
2026-05-04 10:25 45.17773 15.44244 37109 ft 462 kts 139°
2026-05-04 10:26 45.13364 15.49852 37112 ft 462 kts 139°
2026-05-04 10:26 45.08607 15.55937 37098 ft 462 kts 139°
2026-05-04 10:27 45.03904 15.61948 37101 ft 462 kts 139°
2026-05-04 10:27 44.99158 15.67997 37112 ft 462 kts 139°
2026-05-04 10:28 44.94709 15.73629 37106 ft 461 kts 141°
2026-05-04 10:28 44.89438 15.78634 37118 ft 459 kts 151°
2026-05-04 10:29 44.83965 15.83180 37094 ft 460 kts 151°
2026-05-04 10:29 44.78478 15.87826 37119 ft 460 kts 150°
2026-05-04 10:30 44.73249 15.92315 37115 ft 461 kts 150°
2026-05-04 10:30 44.67968 15.96841 37114 ft 461 kts 150°
2026-05-04 10:31 44.63320 16.00651 37126 ft 461 kts 152°
2026-05-04 10:32 44.44302 16.15702 37134 ft 466 kts 152°
2026-05-04 10:33 44.38854 16.20023 37121 ft 467 kts 152°
2026-05-04 10:33 44.33360 16.24371 37130 ft 467 kts 152°
2026-05-04 10:34 44.27732 16.28813 37131 ft 468 kts 152°
2026-05-04 10:34 44.22067 16.33276 37141 ft 467 kts 152°
2026-05-04 10:35 44.16407 16.37723 37136 ft 467 kts 152°
2026-05-04 10:35 44.10813 16.42109 37138 ft 467 kts 152°
2026-05-04 10:36 44.05161 16.46532 37149 ft 466 kts 152°
2026-05-04 10:36 43.99731 16.51366 37150 ft 468 kts 144°
2026-05-04 10:37 43.94584 16.56874 37135 ft 468 kts 143°
2026-05-04 10:37 43.89439 16.62432 37145 ft 468 kts 143°
2026-05-04 10:39 43.71263 16.81538 37135 ft 469 kts 143°
2026-05-04 10:40 43.66049 16.86972 37142 ft 470 kts 143°
2026-05-04 10:40 43.60828 16.92403 37142 ft 470 kts 143°
2026-05-04 10:41 43.55633 16.97795 37149 ft 471 kts 143°
2026-05-04 10:41 43.50396 17.03220 37146 ft 471 kts 143°
2026-05-04 10:42 43.45149 17.08641 37152 ft 472 kts 143°
2026-05-04 10:42 43.39892 17.14062 37150 ft 472 kts 143°
2026-05-04 10:43 43.34737 17.19366 37143 ft 472 kts 143°
2026-05-04 10:45 43.14104 17.40478 37174 ft 472 kts 143°
2026-05-04 10:45 43.08834 17.45842 37165 ft 472 kts 143°
2026-05-04 10:46 43.03556 17.51202 37149 ft 472 kts 143°
2026-05-04 10:46 42.98279 17.56549 37166 ft 472 kts 143°
2026-05-04 10:47 42.93161 17.61724 37161 ft 473 kts 143°
2026-05-04 10:47 42.87899 17.67033 37167 ft 473 kts 143°
2026-05-04 10:49 42.70004 17.84998 37173 ft 474 kts 143°
2026-05-04 10:50 42.66460 17.88534 37176 ft 474 kts 143°
2026-05-04 10:51 42.56574 17.98141 36833 ft 478 kts 163°
2026-05-04 10:52 42.55027 17.98824 36815 ft 478 kts 162°
2026-05-04 10:52 42.51973 18.00201 37033 ft 472 kts 162°
2026-05-04 10:54 42.42887 18.08262 37103 ft 466 kts 139°
2026-05-04 10:54 42.41737 18.09571 37185 ft 463 kts 139°
2026-05-04 10:56 42.33587 18.18953 36298 ft 478 kts 140°
2026-05-04 10:56 42.32325 18.20325 36199 ft 479 kts 141°
2026-05-04 10:57 42.29803 18.23008 36280 ft 473 kts 140°
2026-05-04 10:57 42.28525 18.24291 36420 ft 469 kts 149°
2026-05-04 10:57 42.27133 18.25352 36482 ft 466 kts 155°
2026-05-04 10:58 42.24234 18.26760 36431 ft 462 kts 167°
2026-05-04 10:58 42.21240 18.27771 36572 ft 456 kts 168°
2026-05-04 10:59 42.17811 18.29005 36753 ft 451 kts 161°
2026-05-04 10:59 42.16387 18.29833 36747 ft 453 kts 148°
2026-05-04 10:59 42.15106 18.30977 36646 ft 454 kts 140°
2026-05-04 10:59 42.13961 18.32383 36485 ft 457 kts 129°
2026-05-04 11:00 42.12999 18.34014 36348 ft 458 kts 122°
2026-05-04 11:01 42.05362 18.45212 37085 ft 446 kts 136°
2026-05-04 11:02 42.04333 18.46493 37157 ft 445 kts 135°
2026-05-04 11:05 41.88512 18.65936 37112 ft 463 kts 134°
2026-05-04 11:06 41.86360 18.68747 37227 ft 462 kts 134°
2026-05-04 11:06 41.84184 18.71574 37219 ft 465 kts 134°
2026-05-04 11:08 41.76360 18.81755 37398 ft 469 kts 134°
2026-05-04 11:10 41.68584 18.91809 37115 ft 483 kts 138°
2026-05-04 11:12 41.55504 19.03869 37024 ft 504 kts 148°
2026-05-04 11:12 41.53890 19.05157 37029 ft 506 kts 149°
2026-05-04 11:12 41.51023 19.07423 37416 ft 499 kts 148°
2026-05-04 11:13 41.49562 19.08594 37576 ft 498 kts 149°
2026-05-04 11:13 41.47982 19.09817 37609 ft 499 kts 149°
2026-05-04 11:13 41.45125 19.11999 37885 ft 497 kts 150°
2026-05-04 11:14 41.43647 19.13087 38095 ft 494 kts 151°
2026-05-04 11:14 41.42191 19.14137 38316 ft 490 kts 152°
2026-05-04 11:14 41.40455 19.15333 38493 ft 489 kts 155°
2026-05-04 11:16 41.19478 19.22720 37169 ft 482 kts 161°
2026-05-04 11:16 41.13168 19.25828 37163 ft 484 kts 160°
2026-05-04 11:17 41.06838 19.28955 37155 ft 486 kts 160°
2026-05-04 11:19 40.84631 19.39678 36608 ft 486 kts 161°
2026-05-04 11:19 40.81448 19.41206 36488 ft 487 kts 161°
2026-05-04 11:19 40.78298 19.42717 36385 ft 488 kts 161°
2026-05-04 11:19 40.75062 19.44269 36271 ft 489 kts 161°
2026-05-04 11:20 40.71901 19.45783 36152 ft 490 kts 161°
2026-05-04 11:20 40.68695 19.47316 36053 ft 491 kts 161°
2026-05-04 11:20 40.65477 19.48855 35944 ft 492 kts 161°
2026-05-04 11:20 40.62257 19.50393 35830 ft 493 kts 161°
2026-05-04 11:22 40.39597 19.61141 35060 ft 496 kts 162°
2026-05-04 11:22 40.36342 19.62679 34955 ft 496 kts 162°
2026-05-04 11:23 40.33092 19.64212 34839 ft 497 kts 162°
2026-05-04 11:23 40.29840 19.65745 34730 ft 497 kts 162°
2026-05-04 11:24 40.10262 19.74940 34082 ft 500 kts 162°
2026-05-04 11:25 40.06984 19.76474 33957 ft 501 kts 162°
2026-05-04 11:25 40.03704 19.78007 33831 ft 501 kts 162°
2026-05-04 11:25 40.00410 19.79528 33709 ft 502 kts 164°
2026-05-04 11:26 39.93619 19.81369 33491 ft 499 kts 174°
2026-05-04 11:27 39.70978 19.86037 32608 ft 461 kts 174°
2026-05-04 11:28 39.67819 19.86708 32367 ft 459 kts 174°
2026-05-04 11:28 39.64670 19.87375 32110 ft 458 kts 174°
2026-05-04 11:28 39.61532 19.88038 31865 ft 456 kts 174°
2026-05-04 11:28 39.58403 19.88697 31606 ft 455 kts 174°
2026-05-04 11:29 39.55284 19.89353 31360 ft 454 kts 174°
2026-05-04 11:29 39.52424 19.89954 31136 ft 453 kts 174°
2026-05-04 11:29 39.49679 19.90530 30918 ft 452 kts 174°
2026-05-04 11:29 39.46584 19.91179 30678 ft 451 kts 174°
2026-05-04 11:31 39.26303 19.95421 28925 ft 440 kts 174°
2026-05-04 11:33 39.06512 19.99537 27159 ft 424 kts 173°
2026-05-04 11:33 39.03754 20.00109 26919 ft 422 kts 173°
2026-05-04 11:33 39.00946 20.00690 26683 ft 420 kts 173°
2026-05-04 11:34 38.98137 20.01272 26437 ft 418 kts 173°
2026-05-04 11:34 38.95376 20.01842 26202 ft 416 kts 173°
2026-05-04 11:34 38.92556 20.02425 25957 ft 414 kts 173°
2026-05-04 11:34 38.89768 20.03000 25712 ft 412 kts 173°
2026-05-04 11:35 38.86951 20.03581 25473 ft 410 kts 173°
2026-05-04 11:35 38.84136 20.04161 25247 ft 409 kts 173°
2026-05-04 11:35 38.81333 20.04738 25002 ft 407 kts 173°
2026-05-04 11:35 38.78585 20.05304 24765 ft 405 kts 173°
2026-05-04 11:36 38.75874 20.05861 24542 ft 404 kts 173°
2026-05-04 11:36 38.73154 20.06420 24313 ft 402 kts 173°
2026-05-04 11:36 38.70422 20.06981 24082 ft 401 kts 173°
2026-05-04 11:36 38.67697 20.07540 23855 ft 399 kts 173°
2026-05-04 11:37 38.64997 20.08093 23613 ft 398 kts 173°
2026-05-04 11:37 38.62283 20.08649 23336 ft 397 kts 173°
2026-05-04 11:37 38.59593 20.09200 23073 ft 395 kts 173°
2026-05-04 11:37 38.56883 20.09754 22817 ft 394 kts 173°
2026-05-04 11:38 38.54182 20.10306 22540 ft 392 kts 173°
2026-05-04 11:38 38.51499 20.10854 22272 ft 391 kts 173°
2026-05-04 11:38 38.48822 20.11400 22012 ft 389 kts 172°
2026-05-04 11:38 38.46151 20.11945 21748 ft 388 kts 173°
2026-05-04 11:39 38.43523 20.12467 21493 ft 386 kts 176°
2026-05-04 11:39 38.40927 20.12269 21190 ft 376 kts 202°
2026-05-04 11:40 38.28449 20.02374 19782 ft 361 kts 209°
2026-05-04 11:41 38.26123 20.01146 19533 ft 362 kts 205°
2026-05-04 11:41 38.23741 20.00099 19293 ft 363 kts 201°
2026-05-04 11:41 38.21312 19.99238 19057 ft 363 kts 198°
2026-05-04 11:41 38.18838 19.98565 18822 ft 363 kts 194°
2026-05-04 11:42 38.16345 19.98087 18589 ft 363 kts 189°
2026-05-04 11:42 38.13842 19.97804 18339 ft 363 kts 186°
2026-05-04 11:42 38.11325 19.97713 18075 ft 362 kts 182°
2026-05-04 11:42 38.08817 19.97817 17852 ft 359 kts 178°
2026-05-04 11:43 38.06342 19.98109 17536 ft 357 kts 174°
2026-05-04 11:43 38.03892 19.98577 17220 ft 354 kts 171°
2026-05-04 11:43 38.01481 19.99191 16914 ft 352 kts 167°
2026-05-04 11:43 37.99120 19.99979 16605 ft 350 kts 163°
2026-05-04 11:44 37.96794 20.00863 16290 ft 349 kts 162°
2026-05-04 11:44 37.94515 20.01902 15971 ft 347 kts 158°
2026-05-04 11:44 37.92311 20.03124 15658 ft 345 kts 153°
2026-05-04 11:44 37.90225 20.04539 15349 ft 343 kts 148°
2026-05-04 11:45 37.88191 20.06169 15036 ft 341 kts 144°
2026-05-04 11:45 37.86265 20.07925 14733 ft 339 kts 140°
2026-05-04 11:45 37.84430 20.09789 14415 ft 338 kts 137°
2026-05-04 11:45 37.82724 20.11712 14113 ft 336 kts 134°
2026-05-04 11:46 37.81072 20.13784 13796 ft 334 kts 131°
2026-05-04 11:46 37.79519 20.15961 13446 ft 332 kts 127°
2026-05-04 11:46 37.78076 20.18225 13119 ft 329 kts 124°
2026-05-04 11:46 37.76747 20.20562 12809 ft 326 kts 120°
2026-05-04 11:47 37.75525 20.22969 12491 ft 323 kts 117°
2026-05-04 11:47 37.74413 20.25418 12190 ft 320 kts 112°
2026-05-04 11:47 37.73912 20.28078 11808 ft 307 kts 84°
2026-05-04 11:47 37.74053 20.30746 11469 ft 305 kts 80°
2026-05-04 11:48 37.74217 20.33419 11159 ft 304 kts 81°
2026-05-04 11:48 37.74335 20.36078 10846 ft 303 kts 82°
2026-05-04 11:48 37.74411 20.38737 10544 ft 302 kts 84°
2026-05-04 11:48 37.74458 20.41382 10244 ft 301 kts 84°
2026-05-04 11:49 37.74486 20.44009 10064 ft 295 kts 85°
2026-05-04 11:49 37.74503 20.46579 9803 ft 292 kts 85°
2026-05-04 11:49 37.74517 20.49143 9515 ft 291 kts 85°
2026-05-04 11:49 37.74527 20.51688 9210 ft 290 kts 85°
2026-05-04 11:50 37.74536 20.54226 8911 ft 288 kts 85°
2026-05-04 11:50 37.74543 20.56751 8626 ft 286 kts 85°
2026-05-04 11:50 37.74546 20.59258 8345 ft 285 kts 87°
2026-05-04 11:50 37.74053 20.61696 8027 ft 294 kts 120°
2026-05-04 11:51 37.72557 20.63417 7765 ft 295 kts 155°
2026-05-04 11:51 37.70580 20.63940 7525 ft 290 kts 179°
2026-05-04 11:51 37.68579 20.64221 7248 ft 290 kts 168°
2026-05-04 11:51 37.66665 20.65021 6972 ft 290 kts 156°
2026-05-04 11:52 37.65467 20.65770 6785 ft 290 kts 150°
2026-05-04 11:52 37.63752 20.67113 6505 ft 290 kts 144°
2026-05-04 11:52 37.62144 20.68630 6211 ft 289 kts 140°
2026-05-04 11:52 37.60642 20.70304 5934 ft 287 kts 134°
2026-05-04 11:53 37.59276 20.72133 5648 ft 285 kts 128°
2026-05-04 11:53 37.58073 20.74105 5376 ft 283 kts 122°
2026-05-04 11:53 37.57036 20.76205 5109 ft 280 kts 116°
2026-05-04 11:53 37.56179 20.78344 5020 ft 265 kts 111°
2026-05-04 11:55 37.54782 20.92571 3323 ft 210 kts 74°
2026-05-04 11:55 37.55454 20.94100 3087 ft 196 kts 36°
2026-05-04 11:56 37.56647 20.94710 2901 ft 180 kts 360°
2026-05-04 11:56 37.57846 20.94555 2928 ft 174 kts 343°
2026-05-04 11:56 37.59029 20.94133 2776 ft 177 kts 341°
2026-05-04 11:56 37.60199 20.93694 2604 ft 174 kts 341°
2026-05-04 11:57 37.61347 20.93266 2457 ft 170 kts 341°
2026-05-04 11:57 37.62458 20.92855 2337 ft 163 kts 341°
2026-05-04 11:57 37.63540 20.92457 2137 ft 162 kts 341°
2026-05-04 11:57 37.64589 20.92090 1970 ft 153 kts 341°
2026-05-04 11:58 37.65601 20.91738 1757 ft 149 kts 341°
2026-05-04 11:58 37.66603 20.91390 1565 ft 150 kts 341°
2026-05-04 11:58 37.67635 20.91095 1365 ft 154 kts 346°
2026-05-04 11:58 37.68683 20.90797 1188 ft 155 kts 341°
2026-05-04 11:59 37.69718 20.90415 1019 ft 155 kts 340°
2026-05-04 11:59 37.70771 20.90021 803 ft 160 kts 342°
2026-05-04 11:59 37.71843 20.89604 607 ft 163 kts 343°
2026-05-04 11:59 37.72940 20.89203 391 ft 164 kts 346°
2026-05-04 12:00 37.74025 20.88814 146 ft 160 kts 346°
2026-05-04 12:00 37.75064 20.88437 19 ft 146 kts 343°
2026-05-04 12:00 37.75875 20.88133 21 ft 75 kts 343°
2026-05-04 12:00 37.76036 20.88040 19 ft 9 kts 352°
2026-05-04 12:01 37.76023 20.88081 19 ft 9 kts 165°
2026-05-04 12:01 37.75951 20.88106 22 ft 12 kts 164°
2026-05-04 12:02 37.75510 20.88273 20 ft 10 kts 160°
2026-05-04 12:03 37.75477 20.88345 20 ft 10 kts 105°
2026-05-04 12:03 37.75446 20.88412 21 ft 7 kts 161°
2026-05-04 12:03 37.75433 20.88441 19 ft 4 kts 87°
2026-05-04 12:03 37.75441 20.88475 19 ft 4 kts 71°
2026-05-04 12:04 37.75447 20.88500 22 ft 1 kts 73°
2026-05-04 12:04 37.75448 20.88505 21 ft 0 kts 73°